Wind_Speed
16 14 12 11 10 8 7 6 4 3 2 3 4 6 6 7 7 8 10 11 12 12 12 12 12 12 12 11 11 11 11 11 11 10 9 8 7 6 6 6 5 4 3 3
17 15 13 13 11 10 8 8 6 4 3 1 1 3 5 6 6 7 8 9 10 10 10 10 11 11 11 11 11 11 11 11 10 10 10 9 7 6 6 5 5 4 4 4
19 16 16 14 13 11 10 9 9 7 5 4 2 1 3 5 5 6 7 7 9 9 9 9 9 9 9 10 10 10 10 10 10 9 9 8 7 6 5 5 5 4 4 4
21 20 19 17 15 13 11 11 11 9 9 7 6 4 2 3 4 5 5 5 6 7 7 8 8 7 7 8 9 9 10 10 9 9 8 8 7 6 5 5 5 5 5 4
23 21 21 19 17 16 15 14 13 12 11 10 9 7 4 3 4 5 5 4 5 5 5 6 6 6 6 7 7 8 8 9 10 10 9 9 8 7 6 5 5 5 5 5
24 23 22 20 18 18 17 16 15 14 14 12 11 10 7 5 4 5 5 5 5 4 5 5 5 5 5 6 6 6 7 8 9 9 10 9 9 9 8 6 5 5 5 6
27 25 23 21 20 20 19 17 16 16 16 14 13 12 8 6 5 5 5 6 6 5 4 4 4 5 5 5 5 5 6 7 8 9 9 9 9 9 8 8 7 6 6 6
28 27 25 23 22 21 20 19 18 18 16 15 15 14 10 8 7 7 7 7 6 6 5 4 5 5 5 5 5 6 7 7 8 9 10 9 9 10 9 8 8 8 8 8
29 27 27 26 25 24 23 22 21 21 19 19 18 16 14 11 10 9 9 8 8 8 7 6 6 6 5 6 6 7 7 7 8 9 9 10 10 10 9 9 9 8 8 9
29 28 28 28 27 27 26 24 23 23 22 22 21 19 17 14 12 11 10 9 9 9 9 9 8 7 7 7 7 8 8 8 9 9 10 10 10 10 10 10 10 9 10 9
29 29 29 30 29 28 27 26 25 24 24 24 23 21 18 16 14 13 12 11 11 11 12 11 10 9 9 9 8 9 9 9 10 10 10 11 11 11 10 11 11 11 11 10
30 30 30 31 30 30 29 28 26 26 26 26 26 23 19 18 17 15 14 13 13 13 13 12 12 11 11 11 11 11 11 11 11 11 11 11 11 11 12 12 12 12 12 12
31 32 31 31 32 32 32 31 29 29 28 28 28 25 22 21 20 18 16 16 15 15 14 13 13 13 13 13 13 13 13 13 13 12 12 12 12 12 13 14 14 13 14 14
31 33 32 32 32 32 33 33 32 31 32 30 29 27 25 23 22 20 19 18 17 17 15 15 15 15 14 14 14 14 14 14 14 14 14 14 14 14 15 15 15 15 16 16
33 33 32 32 32 34 34 34 34 34 34 33 30 29 27 25 24 22 21 21 20 20 19 18 18 18 17 16 16 16 16 15 15 16 16 16 17 17 17 17 17 18 18 18
36 35 34 33 33 35 36 35 35 35 35 34 33 32 29 28 27 26 24 23 23 23 22 21 22 21 20 19 19 18 18 18 18 18 19 19 19 19 19 19 19 20 20 20
38 38 37 36 35 36 37 36 36 37 37 36 35 33 31 30 29 28 28 26 25 25 25 25 25 24 23 22 22 21 21 21 21 21 21 21 21 21 21 22 22 22 22 22
39 40 40 39 38 40 38 36 37 37 37 36 36 34 33 31 30 30 30 29 28 28 27 26 26 27 26 25 24 24 24 24 24 23 24 24 24 24 24 24 24 24 24 24
40 41 42 43 42 41 40 38 37 37 37 36 37 35 34 34 33 32 30 30 29 29 29 29 29 29 28 27 27 26 26 26 26 26 26 27 27 27 28 27 27 27 26 26
40 41 43 44 44 44 42 40 39 38 39 37 37 37 36 35 35 34 32 32 32 31 31 31 31 31 30 29 29 29 29 28 28 28 29 30 30 30 30 30 29 28 28 27
38 39 42 43 44 44 43 42 41 40 40 38 38 38 37 37 36 35 35 35 34 33 33 33 33 32 31 31 31 31 31 31 31 32 32 33 32 32 31 32 30 29 29 29
36 37 39 42 44 44 43 43 43 42 41 40 39 39 39 39 38 37 37 37 37 37 36 35 35 35 34 33 33 33 33 33 34 35 35 34 34 33 33 33 32 31 30 30
35 37 38 40 42 43 43 44 44 43 43 42 42 41 41 41 39 39 38 38 38 38 38 38 37 37 37 36 36 36 35 36 36 36 36 36 35 34 34 33 32 31 31 32
35 36 38 39 40 42 42 42 42 42 42 43 43 43 43 42 42 41 41 40 40 39 39 39 39 39 39 39 39 38 37 38 38 39 38 37 36 36 35 33 33 32 33 33
37 37 38 38 39 40 41 41 41 41 42 42 43 43 43 43 42 42 42 41 40 40 39 40 41 41 41 41 40 39 38 38 38 38 38 37 38 36 35 33 33 34 34 35
37 37 38 38 38 39 40 41 43 42 41 41 41 41 41 42 42 41 41 41 40 40 40 41 42 42 42 41 40 39 38 38 38 38 37 37 37 37 36 35 35 36 35 35
Wind_Direction
199 198 197 199 196 198 193 187 170 140 115 67 55 42 38 37 36 32 33 37 40 41 42 44 47 51 53 56 58 63 59 58 58 57 59 61 62 59 56 58 53 43 33 25
202 203 207 209 209 211 211 207 203 205 212 262 26 22 28 31 31 29 30 33 37 39 43 45 47 50 51 53 54 57 57 54 55 56 54 54 52 47 45 43 38 28 21 18
209 210 214 218 221 223 224 222 217 220 235 259 266 330 11 21 15 19 22 27 35 40 47 50 50 47 50 51 50 49 50 48 49 50 46 45 44 39 34 28 22 19 10 2
215 217 220 222 226 232 232 230 228 233 244 254 265 273 307 345 348 350 1 12 24 33 43 47 48 48 49 49 49 45 41 39 39 39 37 32 32 26 23 15 12 9 0 353
219 223 224 225 227 231 231 231 234 238 245 252 261 269 271 300 332 335 340 350 3 15 24 32 40 45 45 41 40 40 36 31 27 23 21 20 20 17 13 5 1 359 355 352
220 223 223 224 226 230 231 232 235 240 246 249 258 268 272 275 291 309 324 333 343 356 2 13 22 32 32 29 27 26 24 24 19 15 14 12 11 10 6 2 354 346 344 344
222 224 224 224 228 230 233 236 241 243 245 251 257 264 265 269 271 276 294 309 323 333 343 348 352 2 12 17 14 9 8 7 9 10 7 3 1 360 359 357 349 343 337 332
224 222 223 224 228 231 233 236 240 247 251 255 255 259 260 259 269 274 288 295 303 314 321 324 329 334 344 354 356 351 354 356 357 357 355 353 350 345 347 348 344 342 338 334
227 225 224 226 229 231 232 235 239 245 250 254 254 256 256 260 266 272 281 284 288 295 302 308 311 313 321 331 336 335 337 343 346 346 347 346 340 336 334 334 336 336 334 331
231 228 226 228 231 230 233 235 238 242 248 251 251 252 257 260 264 273 276 273 275 287 294 296 295 298 304 313 319 323 325 329 333 334 334 334 332 327 327 327 330 329 327 326
232 232 229 230 231 231 232 234 238 242 246 250 251 253 255 258 261 267 270 266 268 277 284 286 287 290 294 300 308 314 317 320 322 324 325 324 323 323 325 324 325 325 323 322
233 234 233 231 233 231 233 235 238 242 246 252 255 256 258 259 261 263 265 266 267 268 272 275 279 282 287 292 299 304 308 312 314 316 318 318 318 319 319 318 318 318 320 320
233 234 233 232 233 233 235 237 240 244 247 251 254 257 258 259 259 260 261 262 264 265 266 270 274 277 282 286 292 297 301 306 307 308 312 312 313 315 315 314 312 312 312 312
235 236 236 235 235 236 237 239 241 244 248 252 254 258 258 259 257 257 259 258 260 261 264 268 273 276 280 283 288 293 297 301 302 302 305 306 308 310 310 311 310 308 307 307
237 239 239 238 236 236 238 241 243 246 249 252 255 258 258 258 258 258 259 259 259 262 265 267 270 274 277 281 285 289 293 297 299 300 302 304 305 305 305 306 306 305 304 304
238 240 241 240 239 238 239 241 244 246 248 252 255 256 257 258 259 259 259 258 259 261 265 267 269 271 273 277 281 284 286 289 293 295 297 298 300 302 302 302 303 303 302 303
239 241 242 242 241 242 241 241 244 247 248 251 253 255 255 257 258 258 259 257 257 260 263 266 268 270 270 274 278 281 282 284 287 290 294 296 297 299 299 299 300 301 301 302
239 240 242 243 243 244 245 245 246 248 250 252 252 253 254 256 257 258 257 256 256 258 259 261 265 267 270 273 275 278 279 281 284 288 290 292 294 295 295 294 296 298 298 297
241 241 242 243 244 246 246 248 248 248 250 251 252 253 255 257 257 257 258 257 257 258 258 261 263 266 269 271 273 275 278 279 282 285 287 288 289 290 291 291 292 293 293 294
243 242 242 243 245 246 247 249 251 251 251 251 252 254 255 256 256 256 256 257 259 260 259 260 262 264 266 268 270 272 277 278 281 283 285 286 287 286 287 288 288 289 290 291
243 243 244 244 246 247 248 249 251 252 253 253 253 254 255 255 257 256 256 258 259 261 260 261 263 264 265 266 269 272 275 277 280 282 284 285 285 284 283 284 285 286 287 288
244 245 245 246 247 248 249 251 252 253 253 253 254 255 256 256 257 257 258 259 260 260 260 261 263 265 266 266 268 270 273 275 277 279 281 283 282 281 281 282 283 285 284 285
245 246 246 247 248 250 251 251 252 252 252 253 254 255 256 257 257 257 258 258 259 261 260 261 262 264 265 266 267 270 272 274 275 276 278 279 278 279 279 280 282 284 284 284
246 247 248 249 250 250 251 251 252 253 253 254 255 256 256 257 257 257 257 257 258 259 260 261 262 263 265 266 267 269 271 273 274 276 278 278 278 277 278 281 282 283 285 285
247 248 250 251 251 251 251 251 252 253 254 255 256 257 258 257 256 255 255 256 258 259 260 261 262 264 266 266 268 268 270 272 273 276 278 278 279 279 281 281 282 283 285 285
248 249 251 252 253 254 254 254 254 255 255 256 256 255 256 257 256 255 255 256 258 258 259 260 261 263 264 264 265 266 268 271 273 275 277 278 279 278 278 280 283 284 285 287
Height
5903 5906 5907 5908 5909 5910 5911 5912 5912 5913 5912 5912 5912 5913 5912 5911 5911 5910 5909 5907 5906 5904 5903 5902 5901 5900 5899 5897 5896 5896 5895 5894 5893 5892 5891 5890 5890 5889 5889 5888 5888 5888 5888 5887
5902 5904 5906 5906 5908 5909 5910 5912 5912 5913 5912 5913 5913 5913 5913 5912 5912 5911 5910 5909 5907 5906 5905 5904 5903 5902 5901 5899 5898 5897 5897 5895 5894 5893 5892 5892 5891 5890 5890 5889 5888 5888 5888 5887
5900 5903 5904 5905 5907 5908 5909 5911 5912 5912 5912 5912 5913 5914 5914 5913 5912 5912 5911 5910 5908 5907 5906 5905 5904 5903 5903 5902 5901 5899 5898 5897 5896 5894 5893 5893 5892 5891 5890 5889 5889 5888 5888 5887
5897 5900 5902 5903 5905 5906 5908 5909 5910 5911 5911 5911 5913 5913 5914 5913 5913 5912 5911 5910 5909 5908 5907 5906 5905 5904 5904 5903 5902 5901 5900 5899 5897 5896 5895 5893 5892 5891 5890 5890 5889 5888 5888 5887
5894 5897 5899 5901 5903 5903 5905 5907 5908 5909 5909 5910 5911 5912 5913 5913 5912 5912 5911 5911 5910 5909 5908 5907 5907 5906 5905 5904 5903 5902 5901 5900 5899 5897 5896 5894 5893 5892 5891 5890 5889 5888 5887 5886
5891 5893 5896 5898 5900 5901 5902 5904 5906 5907 5907 5909 5910 5911 5912 5912 5912 5912 5911 5911 5910 5910 5909 5908 5907 5907 5906 5905 5904 5903 5902 5901 5900 5898 5896 5895 5894 5892 5891 5890 5889 5888 5887 5886
5887 5890 5892 5895 5896 5898 5900 5902 5903 5904 5905 5906 5908 5908 5910 5911 5911 5911 5911 5910 5910 5909 5909 5908 5908 5907 5906 5905 5904 5903 5902 5901 5900 5898 5896 5895 5894 5892 5891 5889 5888 5887 5886 5885
5882 5886 5889 5891 5893 5895 5896 5899 5901 5902 5903 5904 5905 5906 5908 5909 5909 5909 5909 5909 5909 5909 5908 5908 5907 5906 5906 5905 5904 5903 5902 5900 5899 5898 5896 5895 5893 5892 5890 5889 5888 5887 5886 5884
5877 5881 5885 5887 5888 5891 5892 5894 5897 5899 5900 5901 5902 5903 5905 5906 5907 5907 5907 5907 5907 5907 5907 5907 5906 5906 5905 5904 5903 5902 5901 5900 5898 5897 5896 5894 5893 5891 5890 5888 5887 5886 5885 5884
5872 5876 5879 5881 5884 5885 5888 5891 5893 5894 5895 5897 5898 5900 5902 5904 5905 5905 5905 5905 5905 5906 5906 5905 5905 5904 5904 5903 5902 5901 5900 5898 5897 5896 5895 5893 5892 5890 5889 5888 5886 5885 5883 5882
5866 5870 5874 5876 5878 5881 5884 5886 5887 5890 5891 5893 5894 5898 5899 5901 5902 5903 5903 5903 5903 5903 5903 5903 5903 5903 5902 5901 5900 5899 5898 5897 5895 5894 5893 5892 5890 5889 5887 5886 5885 5883 5882 5880
5861 5864 5867 5870 5873 5875 5878 5880 5883 5885 5887 5889 5890 5895 5896 5897 5898 5899 5900 5900 5900 5900 5901 5901 5901 5900 5900 5899 5898 5897 5896 5895 5893 5892 5891 5890 5888 5887 5886 5884 5883 5881 5880 5878
5855 5858 5861 5865 5869 5870 5872 5875 5878 5880 5882 5883 5885 5890 5891 5893 5894 5895 5896 5896 5897 5897 5897 5897 5897 5897 5897 5896 5896 5895 5893 5892 5891 5889 5888 5887 5886 5885 5884 5882 5880 5879 5877 5876
5848 5851 5855 5858 5861 5864 5866 5869 5872 5874 5876 5877 5880 5883 5885 5887 5889 5890 5891 5892 5893 5893 5893 5893 5893 5894 5893 5893 5892 5891 5890 5889 5888 5886 5885 5884 5883 5882 5880 5879 5877 5876 5874 5872
5841 5844 5847 5850 5854 5857 5859 5862 5865 5867 5869 5872 5874 5876 5879 5881 5883 5885 5886 5887 5888 5889 5889 5889 5890 5890 5889 5889 5888 5887 5886 5885 5884 5883 5881 5880 5879 5877 5876 5875 5873 5871 5870 5868
5833 5836 5840 5843 5846 5849 5851 5855 5857 5860 5862 5864 5867 5870 5873 5875 5877 5879 5880 5882 5883 5883 5884 5884 5884 5885 5885 5884 5884 5883 5882 5881 5880 5879 5878 5876 5874 5873 5871 5870 5868 5866 5864 5862
5825 5829 5832 5835 5839 5841 5843 5848 5850 5852 5854 5857 5860 5864 5866 5868 5870 5872 5873 5875 5876 5878 5878 5878 5878 5879 5879 5879 5878 5878 5877 5876 5875 5874 5872 5871 5869 5868 5866 5864 5863 5861 5859 5857
5818 5820 5823 5827 5831 5832 5839 5840 5842 5844 5847 5849 5852 5855 5858 5860 5862 5864 5866 5868 5869 5870 5871 5872 5872 5872 5872 5872 5872 5872 5871 5870 5869 5868 5866 5865 5863 5862 5860 5858 5856 5854 5852 5850
5809 5812 5815 5817 5820 5823 5828 5831 5834 5837 5839 5842 5844 5847 5850 5853 5854 5857 5858 5860 5862 5863 5864 5864 5865 5865 5865 5865 5865 5865 5864 5863 5862 5861 5859 5858 5856 5855 5853 5851 5849 5847 5845 5843
5799 5802 5806 5808 5810 5814 5820 5823 5825 5829 5830 5834 5836 5838 5841 5843 5845 5848 5850 5852 5854 5855 5856 5856 5856 5856 5857 5857 5857 5857 5856 5855 5854 5853 5851 5850 5848 5846 5845 5842 5840 5839 5837 5835
5790 5792 5795 5798 5800 5804 5810 5813 5816 5820 5823 5825 5827 5829 5832 5834 5836 5839 5841 5843 5844 5846 5846 5847 5847 5847 5848 5848 5848 5848 5848 5847 5846 5844 5842 5841 5839 5837 5836 5833 5831 5830 5829 5827
5780 5783 5786 5789 5792 5797 5800 5803 5806 5809 5812 5815 5817 5820 5822 5824 5826 5828 5831 5832 5834 5836 5837 5837 5838 5838 5839 5839 5839 5838 5838 5837 5836 5834 5833 5831 5830 5828 5826 5825 5823 5822 5820 5818
5771 5775 5776 5780 5784 5786 5789 5792 5795 5798 5801 5804 5806 5809 5811 5814 5815 5818 5820 5822 5823 5825 5827 5828 5828 5828 5829 5829 5828 5828 5827 5826 5825 5824 5823 5821 5819 5817 5816 5814 5814 5812 5811 5809
5762 5765 5767 5770 5773 5775 5778 5781 5784 5786 5789 5792 5795 5798 5800 5802 5804 5807 5809 5810 5812 5814 5815 5816 5817 5817 5818 5818 5817 5817 5816 5816 5815 5814 5812 5810 5809 5807 5806 5805 5804 5803 5801 5799
5753 5755 5757 5760 5763 5765 5768 5770 5773 5776 5778 5781 5783 5786 5788 5790 5792 5794 5797 5798 5800 5802 5803 5804 5805 5806 5806 5806 5806 5806 5805 5805 5805 5803 5802 5800 5799 5798 5796 5795 5794 5793 5792 5790
5744 5747 5749 5751 5753 5755 5757 5760 5762 5764 5767 5769 5772 5774 5776 5777 5780 5782 5784 5786 5788 5790 5791 5792 5793 5794 5794 5794 5794 5794 5794 5794 5794 5793 5792 5791 5789 5787 5786 5785 5784 5783 5782 5780